Tracking 23885 objects as of 28-Nov-2021
HD Live streaming from Space Station
objects crossing your sky now

SPACEBEE-50

Track SPACEBEE-50 now!
10-day predictions


NORAD ID: 47443
Int'l Code: 2021-006AG
Perigee: 529.1 km
Apogee: 536.0 km
Inclination: 97.5 °
Period: 95.1 minutes
Semi major axis: 6903 km
RCS: Unknown
Launch date: January 24, 2021
Source: United States (US)
Launch site: AIR FORCE EASTERN TEST RANGE (AFETR)
aabbcc
Your satellite tracking list
Your tracking list is empty




NASA's NSSDC Master Catalog

Two Line Element Set (TLE):
1 47443U 21006AG  21331.73651854  .00004759  00000-0  26904-3 0  9999
2 47443  97.4772  29.8349 0005011 260.8335  99.2329 15.13549004 46724
Source of the keplerian elements: AFSPC